Location: Camp Creek
(33.9000°N, 111.8167°W)
Time: 00:48:42
(UTC-07:00)

Cosmos 1656 - Visible Passes

Search period start: 19 September 2014 00:00
Search period end: 29 September 2014 00:00
Orbit: 799 x 849 km, 71.1° (Epoch: 18 September)

Date Brightness Start Highest point End Pass type
(mag) Time Alt. Az. Time Alt. Az. Time Alt. Az.
26 Sep 6.3 05:45:50 10° NNE 05:49:30 18° ENE 05:53:09 10° E visible
27 Sep 6.4 05:25:55 10° NNE 05:29:04 15° ENE 05:32:12 10° E visible
27 Sep 4.5 20:07:54 10° S 20:11:12 35° S 20:11:12 35° S visible
28 Sep 6.5 05:06:10 10° NNE 05:08:37 13° NE 05:11:05 10° E visible
28 Sep 3.8 19:47:44 10° S 19:53:08 49° ESE 19:58:29 10° NNE visible
28 Sep 5.9 21:32:57 10° WSW 21:37:00 20° WNW 21:41:02 10° NNW visible
